Regional Weather Roundup
Issued by NWS Jackson, KY

Home | Current Version | Previous Version | Text Only | Print | Product List | Glossary On
Versions: 1 2 3 4 5 6 7 8 9 10 11 12 13 14 15 16 17 18 19 20 21 22 23 24 25 26 27 28 29 30 31 32 33 34 35 36 37 38 39 40 41 42 43 44 45 46 47 48 49 50
000
ASUS43 KJKL 182019
RWRJKL

EAST KENTUCKY HOURLY WEATHER ROUNDUP
NATIONAL WEATHER SERVICE JACKSON KY
400 PM EDT FRI APR 18 2014

NOTE: "FAIR" INDICATES FEW OR NO CLOUDS BELOW 12,000 FEET WITH
NO SIGNIFICANT WEATHER AND/OR OBSTRUCTIONS TO VISIBILITY.

* THESE REPORTS ARE NOT UNDER NWS QUALITY CONTROL AND MAY NOT
  REPORT WEATHER SUCH AS PRECIPITATION AND FOG.

KYZ079-080-083-085-087-088-110-112-115-119-120-182100
...EASTERN KENTUCKY...

CITY           SKY/WX    TMP DP  RH WIND       PRES   REMARKS
JACKSON        PTSUNNY   70  36  28 MISG      30.24F
LONDON         CLOUDY    69  40  34 CALM      30.24F
SOMERSET*      PTSUNNY   66  41  39 NW3       30.25F
MONTICELLO*    CLOUDY    67  45  45 NE6       30.26F
MIDDLESBORO*   CLOUDY    67  41  39 N7        30.25F
HARLAN APT*    CLOUDY    66  34  30 CALM      30.24F
BLACK MTN*       N/A     57  37  47 NE2         N/A
PIKEVILLE APT* MOSUNNY   66  39  37 CALM      30.24F
BIG SANDY*     MOCLDY    70  38  31 SW5       30.23F
ASHLAND*       SUNNY     73  36  25 CALM      30.21F
MOREHEAD APT*  PTCLDY    68  37  32 NW3       30.27F
$$

KYZ035-036-041-042-044-050-067-078-099-182100
...CENTRAL KENTUCKY...

CITY           SKY/WX    TMP DP  RH WIND       PRES   REMARKS
MT STERLING*   MOSUNNY   68  41  37 NW7       30.27F
FLEMING/MASON* SUNNY     68  36  30 NW7       30.26F
DANVILLE*      PTSUNNY   66  45  45 N3        30.27F
LEXINGTON      PTSUNNY   69  41  36 N7        30.26F
FRANKFORT      PTSUNNY   69  36  29 N5        30.25F
$$

KYZ091>093-OHZ055-061-077-WVZ005-015-034-035-042-182100
...SOUTHERN OHIO/WEST VIRGINIA...

CITY           SKY/WX    TMP DP  RH WIND       PRES   REMARKS
COVINGTON      PTSUNNY   69  38  32 S8        30.25F
COLUMBUS       PTSUNNY   70  35  27 W5        30.24F
DAYTON         PTSUNNY   68  37  32 W9        30.25F
WILMINGTON     MOSUNNY   69  34  27 NW10      30.25F
HUNTINGTON     MOSUNNY   72  35  25 VRB6      30.23F
CHARLESTON     PTSUNNY   71  37  28 N6        30.22F
PINEVILLE*     CLOUDY    69  37  31 MISG      30.30F
BECKLEY        CLOUDY    63  25  23 VRB3      30.26F
BLUEFIELD      CLOUDY    63  28  26 CALM      30.27F
$$

VAZ002-007-008-TNZ017-027-036-066-071-182100
...SOUTHWEST VIRGINIA/EAST TENNESSEE...

CITY           SKY/WX    TMP DP  RH WIND       PRES   REMARKS
WISE*          CLOUDY    61  34  36 N7        30.27F
ABINGDON*      CLOUDY    61  33  34 E5        30.25F
BRISTOL        CLOUDY    61  30  31 S3        30.26F
KNOXVILLE      CLOUDY    63  40  42 NE8       30.23F
OAK RIDGE      CLOUDY    65  38  36 VRB5      30.25F
CROSSVILLE     CLOUDY    62  38  40 N6        30.24F
NASHVILLE      CLOUDY    69  46  43 CALM      30.23F
$$

...KEY TO REMARKS...
VSB - VISIBILITY IN MILES
WCI - WIND CHILL INDEX
HX  - HEAT INDEX

$$



USA.gov is the U.S. government's official web portal to all federal, state and local government web resources and services.